Location: Jonesport
(44.5330°N, 67.5990°W)
Time: 06:51:35
(UTC-04:00)

Iridium 35 - Visible Passes

Search period start: 24 July 2017 00:00
Search period end: 03 August 2017 00:00
Orbit: 776 x 779 km, 86.4° (Epoch: 23 July)

Date Brightness Start Highest point End Pass type
(mag) Time Alt. Az. Time Alt. Az. Time Alt. Az.
24 Jul 5.0 00:34:27 66° ESE 00:34:45 68° E 00:39:57 10° N visible
24 Jul 6.9 02:14:55 15° W 02:16:01 16° WNW 02:19:11 10° NW visible
25 Jul 5.8 00:01:03 37° E 00:01:21 38° E 00:06:08 10° NNE visible
25 Jul 6.3 01:41:31 27° W 01:42:09 27° WNW 01:46:35 10° NNW visible
25 Jul 6.6 23:27:38 21° E 23:28:04 22° E 23:31:58 10° NNE visible
26 Jul 5.5 01:08:07 47° W 01:08:26 48° W 01:13:29 10° N visible
26 Jul 7.2 22:54:14 12° E 22:54:55 12° ENE 22:56:53 10° NE visible
27 Jul 4.9 00:34:42 84° SW 00:34:49 86° W 00:40:05 10° N visible
27 Jul 7.3 02:15:10 10° W 02:16:23 11° WNW 02:17:52 10° NW visible
28 Jul 5.3 00:01:17 53° E 00:01:21 53° E 00:06:26 10° NNE visible
28 Jul 6.7 01:41:45 19° W 01:42:26 20° WNW 01:46:13 10° NNW visible
28 Jul 6.1 23:27:52 30° E 23:28:00 30° E 23:32:30 10° NNE visible
29 Jul 6.0 01:08:20 34° W 01:08:37 34° W 01:13:22 10° NNW visible
29 Jul 6.8 22:54:26 17° E 22:54:47 17° ENE 22:58:06 10° NE visible
30 Jul 5.2 00:34:54 61° W 00:34:57 61° W 00:40:08 10° N visible
31 Jul 4.9 00:01:28 76° E 00:01:28 76° E 00:06:38 10° N visible
31 Jul 7.1 01:41:56 14° W 01:42:46 14° WNW 01:45:29 10° NW visible
31 Jul 5.6 23:28:02 42° E 23:28:02 42° E 23:32:52 10° NNE visible
01 Aug 6.5 01:08:30 24° W 01:08:52 24° WNW 01:13:07 10° NNW visible
01 Aug 6.4 22:54:35 24° E 22:54:40 24° E 22:58:48 10° NNE visible
02 Aug 5.7 00:35:03 42° W 00:35:07 42° W 00:40:05 10° N visible
02 Aug 7.0 22:21:08 14° E 22:21:29 14° ENE 22:24:02 10° NE visible
